Regional Weather Roundup
Issued by NWS

Home | Current Version | Previous Version | Text Only | Print | Product List | Glossary Off
Versions: 1 2 3 4 5 6 7 8 9 10 11 12 13 14 15 16 17 18 19 20 21 22 23 24 25 26 27 28 29 30 31 32 33 34 35 36 37 38 39 40 41 42 43 44 45 46 47 48 49 50

000
ASUS43 KOAX 300910
RWRNE
WEATHER ROUNDUP FOR NEBRASKA
NATIONAL WEATHER SERVICE OMAHA NE
400 AM CDT TUE JUN 30 2015

NOTES: SATELLITE DATA IS BEING USED TO AUGMENT CLOUD COVER ABOVE
       12000 FEET.
       "FAIR" INDICATES FEW OR NO CLOUDS BELOW 12,000 FEET WITH NO
       SIGNIFICANT WEATHER AND/OR OBSTRUCTIONS TO VISIBILITY.

  * THESE STATIONS DO NOT REPORT WEATHER SUCH AS RAIN...SNOW OR FOG.

NEZ001>004-019>022-054>056-301000-
NEBRASKA PANHANDLE

CITY           SKY/WX    TMP DP  RH WIND       PRES   REMARKS
SCOTTSBLUFF    CLEAR     61  55  81 NE3       30.07F
ALLIANCE       CLEAR     56  54  93 W7        30.07F
CHADRON        PTCLDY    59  58  96 CALM      30.01F
KIMBALL          N/A    N/A N/A N/A MISG        N/A
SIDNEY         CLEAR     59  57  93 W7        30.11F
$$

NEZ057>060-069>072-079>082-301000-
SOUTHWEST NEBRASKA

CITY           SKY/WX    TMP DP  RH WIND       PRES   REMARKS
NORTH PLATTE   CLEAR     62  59  90 NE3       30.01F
IMPERIAL       CLEAR     61  57  87 CALM      30.04F
LEXINGTON      CLEAR     62  59  91 N3        30.00F
MCCOOK         CLEAR     64  58  80 W3        30.01F
OGALLALA       CLEAR     60  57  89 NW5       30.04F
$$

NEZ005>010-023>029-035>040-094-301000-
NORTH CENTRAL NEBRASKA

CITY           SKY/WX    TMP DP  RH WIND       PRES   REMARKS
VALENTINE      CLEAR     61  59  93 W5        29.97F
AINSWORTH      CLEAR     67  58  73 SW7       29.97F
BROKEN BOW     CLEAR     64  58  80 CALM      29.99F
O`NEILL        PTCLDY    66  62  86 SW5       29.95S
ORD            CLEAR     59  57  93 CALM      29.96F
THEDFORD       CLEAR     62  60  91 CALM      30.02S
$$

NEZ041-046>049-061>064-073>077-083>087-301000-
SOUTH CENTRAL NEBRASKA

CITY           SKY/WX    TMP DP  RH WIND       PRES   REMARKS
GRAND ISLAND   CLEAR     64  60  87 S3        29.97F
AURORA         CLEAR     70  62  77 S7        29.97S
HASTINGS       CLEAR     67  60  78 SW5       29.98F
HEBRON         CLEAR     65  60  86 CALM      29.96F
HOLDREGE       CLEAR     69  58  69 SW6       29.99F
KEARNEY *      CLEAR     64  61  88 SE5       29.99F
YORK           CLEAR     64  61  88 CALM      29.96F
$$

NEZ011>018-030>034-042>045-301000-
NORTHEAST NEBRASKA

CITY           SKY/WX    TMP DP  RH WIND       PRES   REMARKS
NORFOLK        PTCLDY    64  61  90 CALM      29.92F
ALBION         CLEAR     62  58  86 CALM      29.96S
BLAIR          MOCLDY    67  61  79 W5        29.91F
COLUMBUS *     CLEAR     64  57  77 CALM      29.95S
FREMONT        PTCLDY    65  63  90 W3        29.92S
TEKAMAH        MOCLDY    65  60  84 CALM      29.89F
WAYNE          CLEAR     62  60  95 CALM      29.92S FOG
$$

NEZ050>053-065>068-078-088>093-301000-
SOUTHEAST NEBRASKA

CITY           SKY/WX    TMP DP  RH WIND       PRES   REMARKS
LINCOLN        PTCLDY    67  62  84 CALM      29.93F
OMAHA EPPLEY   CLOUDY    68  64  87 SE3       29.90F
BEATRICE       PTCLDY    65  64  94 CALM      29.95S
FALLS CITY     CLOUDY    66  63  90 CALM      29.91F
NEBRASKA CITY  PTCLDY    67  60  77 W8        29.93R
PLATTSMOUTH    CLOUDY    69  59  71 W6        29.91S
$$

NEZ044-045-051>053-067-301000-
OMAHA AREA

CITY           SKY/WX    TMP DP  RH WIND       PRES   REMARKS
OMAHA EPPLEY   CLOUDY    68  64  87 SE3       29.90F
BLAIR          MOCLDY    67  61  79 W5        29.91F
FREMONT        PTCLDY    65  63  90 W3        29.92S
MILLARD        MOCLDY    65  64  95 CALM      29.90F FOG
OFFUTT AFB     MOCLDY    64  63  97 NW5       29.89F FOG
PLATTSMOUTH    CLOUDY    69  59  71 W6        29.91S
WAHOO          FAIR      70  62  76 W7        29.92S
$$


USA.gov is the U.S. government's official web portal to all federal, state and local government web resources and services.